Wind_Speed
14 12 13 18 20 19 21 23 25 27 30 33 33 32 29 27 26 26 27 29 32 34 36 38 39 41 43 45 46 47 49 50 51 52 54 55 56 57 58 59 59 60 60 60
13 13 12 14 16 17 19 24 27 29 31 33 31 30 30 29 29 30 31 33 35 37 39 41 42 43 45 46 47 47 48 49 50 52 54 55 56 57 58 58 59 59 58 58
12 13 13 15 19 21 23 25 27 31 32 32 32 31 31 32 33 34 35 36 37 39 41 41 42 43 44 45 46 47 48 50 50 52 53 53 54 55 56 56 56 56 56 56
12 14 15 19 20 21 24 26 28 29 32 34 35 35 35 35 35 36 36 36 36 37 38 39 40 42 43 45 46 48 49 50 51 51 52 53 53 54 54 54 54 54 53 53
13 15 18 23 24 23 23 26 28 30 32 33 34 35 35 35 35 35 35 35 35 37 38 38 41 42 44 46 47 47 48 49 49 50 51 51 52 51 51 51 51 51 51 50
13 16 19 22 23 22 23 26 27 28 30 32 32 33 33 33 33 33 32 33 35 36 38 40 41 42 43 44 44 45 46 47 48 48 48 48 48 49 49 49 49 48 48 47
14 17 21 23 24 23 25 26 26 27 28 29 30 30 30 30 31 30 31 33 34 36 37 38 39 40 41 42 43 44 44 45 45 45 45 46 46 47 47 46 45 44 43 42
14 17 20 21 22 23 23 24 24 24 25 26 26 27 28 28 29 30 31 32 33 34 35 36 37 38 39 40 40 40 41 42 43 43 44 45 44 44 42 41 40 38 37 35
16 17 19 20 22 22 23 23 23 23 23 23 24 25 26 27 28 29 29 30 31 32 33 34 35 35 36 36 37 38 39 40 41 42 42 41 40 38 35 34 32 30 29 27
17 18 19 19 20 20 21 21 21 21 22 22 22 23 24 25 26 26 27 28 29 29 30 30 31 32 33 34 34 36 37 38 37 37 36 34 31 29 27 26 24 23 21 20
17 18 18 18 19 19 19 20 20 20 20 20 21 22 23 23 23 24 25 25 26 26 27 28 28 30 30 31 32 33 33 33 33 31 29 26 24 22 20 19 18 17 16 14
18 18 18 18 18 18 18 18 18 18 18 19 19 19 19 20 20 21 22 22 23 24 25 26 26 27 28 28 29 30 30 30 28 25 22 19 17 16 16 15 14 13 12 10
17 18 18 18 17 17 16 16 16 16 16 17 16 16 16 17 17 18 18 19 21 22 22 23 23 24 25 25 26 26 26 24 22 20 18 15 13 12 12 12 12 11 11 10
17 17 16 16 15 14 14 14 14 14 14 14 13 13 13 14 14 15 16 18 19 20 20 21 21 21 22 23 23 22 22 20 18 17 16 14 13 12 11 11 10 11 11 10
16 16 15 14 14 13 13 13 12 12 11 11 10 10 10 10 12 13 15 16 17 18 19 19 19 19 20 20 20 19 18 17 17 16 15 13 12 11 11 11 11 11 11 11
15 14 13 12 12 12 11 11 10 9 8 7 7 7 8 9 11 12 14 15 16 17 18 17 17 17 17 18 17 16 16 16 15 15 14 13 12 11 11 12 11 11 11 11
15 13 12 11 11 11 10 9 8 6 5 5 5 5 7 9 10 12 14 15 16 17 17 16 16 15 15 16 16 15 15 14 14 13 13 13 12 12 11 12 12 12 12 12
14 13 12 11 11 10 9 7 6 4 3 3 4 5 7 8 10 12 13 15 16 17 17 16 15 14 14 14 15 15 14 13 13 12 12 12 11 11 10 11 11 11 11 11
13 12 11 11 10 9 7 6 4 3 2 2 4 5 7 8 10 12 14 15 15 16 17 17 16 15 13 13 14 14 13 13 12 12 11 11 10 9 9 10 10 10 11 11
12 11 10 10 9 8 6 4 3 1 1 2 4 5 7 9 10 12 14 15 15 17 18 18 16 15 14 14 14 14 13 12 12 11 10 10 9 9 9 9 9 9 10 10
11 10 10 9 7 6 5 3 1 1 1 2 4 5 7 8 10 12 13 15 16 17 18 17 17 16 16 16 14 14 13 13 12 11 10 10 9 8 8 8 9 9 9 9
11 10 9 8 6 5 3 1 1 1 1 2 3 5 6 8 10 11 13 15 16 17 17 18 19 19 19 17 15 15 14 14 13 12 11 10 9 8 7 7 8 8 8 8
10 9 8 6 5 3 2 1 1 1 1 1 2 4 5 7 9 11 13 15 16 17 17 18 19 20 19 17 16 17 16 15 15 14 12 11 9 8 8 7 8 8 8 8
10 8 7 6 4 3 2 2 2 2 2 1 1 3 4 6 8 10 12 14 15 16 17 18 19 19 18 18 19 19 18 17 16 16 14 12 11 9 8 8 8 9 9 9
9 8 7 5 4 4 4 3 4 4 3 2 0 2 3 5 7 9 11 13 14 15 16 18 19 19 18 19 20 21 20 19 18 17 16 15 13 12 11 10 10 10 10 10
9 8 7 6 5 5 5 5 5 5 4 3 2 1 2 3 5 8 9 11 13 14 15 16 18 19 20 21 20 20 20 20 20 19 19 17 16 15 14 13 13 12 12 12
11 10 9 8 7 6 6 6 6 6 6 5 3 2 1 1 3 5 7 9 11 13 15 16 18 19 20 20 20 19 19 20 20 20 20 19 19 18 17 16 16 16 15 15
Wind_Direction
242 235 235 214 211 215 223 227 233 238 243 249 255 257 261 263 261 262 266 269 269 270 270 270 271 271 272 273 274 275 276 276 278 280 282 282 284 285 286 288 289 290 290 291
243 247 245 238 230 228 230 233 235 240 247 250 253 260 262 267 272 273 273 271 271 271 271 272 272 273 275 275 277 279 279 280 281 283 284 285 286 288 289 290 290 290 290 291
245 245 247 248 244 243 243 245 248 249 253 258 268 271 269 270 271 273 273 273 274 274 272 273 275 277 277 278 280 281 283 284 286 288 289 290 290 291 291 291 291 291 292 292
247 246 254 259 264 260 256 255 256 258 261 264 270 274 274 276 278 278 279 278 278 276 277 279 281 282 282 284 286 287 289 290 290 291 291 292 292 292 292 292 293 293 293 294
252 248 255 261 263 263 265 264 263 264 266 268 271 274 276 277 279 280 280 279 279 279 280 283 284 286 289 290 290 291 292 292 293 293 293 294 294 294 294 294 295 295 295 295
261 257 255 261 265 268 270 270 268 268 269 270 272 274 277 278 279 280 280 279 280 281 283 286 289 292 293 294 294 295 295 296 296 296 296 296 296 296 296 296 296 296 296 296
268 264 266 272 273 276 276 276 275 271 271 271 272 275 278 279 280 280 282 283 286 289 291 292 294 295 296 297 298 298 299 299 299 299 299 299 299 299 298 298 298 298 298 298
282 275 274 279 278 277 278 277 277 276 275 275 276 276 279 279 281 282 285 289 291 293 294 296 297 298 299 300 301 302 302 302 303 302 302 302 302 302 302 302 301 302 301 301
292 287 284 282 282 281 280 281 281 280 280 280 281 281 281 283 285 287 290 293 294 296 298 299 300 301 303 304 306 306 306 307 306 306 306 306 306 306 305 305 306 306 306 306
298 296 291 288 285 283 281 282 282 282 282 282 283 285 286 287 289 292 294 296 298 300 301 302 304 306 307 309 310 311 311 311 311 311 311 311 311 310 310 311 312 313 314 315
303 301 299 295 290 287 285 284 283 283 284 286 288 288 289 290 292 294 297 299 301 303 305 307 308 310 312 314 315 316 317 318 318 318 318 317 317 317 318 319 321 323 325 328
308 306 303 301 297 293 290 288 287 287 288 290 291 292 292 293 295 298 300 303 306 308 310 311 313 315 317 319 320 322 324 324 325 325 326 327 327 327 330 333 336 339 344 351
310 308 307 305 302 298 295 292 290 290 292 294 294 296 297 298 301 304 307 310 313 315 316 316 318 320 323 326 328 331 334 335 337 339 341 343 344 344 346 350 353 359 5 13
315 312 311 310 307 304 302 300 296 294 295 295 297 299 301 304 308 313 317 320 321 323 323 324 326 328 331 334 337 341 344 347 349 352 356 359 1 2 4 8 10 13 21 30
318 316 314 312 310 308 308 306 303 301 300 299 299 303 310 315 321 326 328 330 330 331 332 333 335 338 341 343 346 349 353 357 360 4 8 11 12 14 19 24 28 32 39 46
321 319 316 313 313 313 314 314 311 309 307 307 309 314 323 331 336 339 340 340 340 342 343 343 344 346 349 352 355 357 359 4 8 12 16 21 26 28 30 34 38 43 48 54
322 321 319 316 316 317 316 317 316 316 316 321 328 336 342 346 348 349 350 351 351 352 352 352 351 353 356 358 2 5 8 11 14 17 21 25 29 33 35 39 44 49 53 58
322 320 319 318 318 317 317 316 315 318 326 338 348 355 357 357 357 358 358 358 358 359 0 0 0 1 1 3 6 8 9 14 15 16 19 22 27 33 39 43 48 52 56 62
322 320 319 320 320 322 320 316 314 320 334 355 10 10 7 7 6 6 4 4 6 9 11 11 10 7 7 9 10 7 11 15 15 16 19 24 30 36 41 46 49 53 59 65
320 319 319 319 320 323 323 318 315 330 18 36 25 16 14 15 13 12 13 14 15 17 17 16 14 13 13 14 11 9 14 15 16 19 23 27 33 40 44 48 52 57 62 67
317 316 317 318 318 320 321 319 317 101 75 49 30 23 22 21 19 19 20 20 21 22 21 20 19 19 19 16 11 14 19 21 22 24 26 29 35 41 46 50 55 59 63 68
312 311 314 315 315 315 313 299 186 141 91 53 34 29 28 24 24 24 23 24 25 26 26 24 24 25 26 21 21 28 29 29 30 30 30 32 37 43 49 52 57 62 66 71
306 305 307 309 307 302 291 252 201 180 136 69 39 33 31 28 28 27 27 28 28 29 27 25 26 28 29 27 33 38 37 35 34 33 34 36 40 47 54 58 62 67 71 75
298 296 295 296 291 280 263 238 213 199 187 141 46 39 36 33 32 30 30 29 29 30 28 28 29 32 32 35 41 41 39 38 37 36 37 40 45 51 58 64 68 70 73 76
287 285 283 281 270 257 247 236 223 212 205 200 147 55 46 39 36 33 30 29 30 31 30 32 34 36 38 41 43 42 41 40 39 40 42 46 51 58 64 69 71 72 74 76
275 271 268 264 256 248 241 234 227 219 215 212 204 137 58 41 35 32 31 32 34 34 34 37 39 41 42 43 43 41 41 42 43 46 49 52 57 62 66 69 71 73 75 77
264 259 255 251 249 244 239 233 226 221 218 217 217 214 203 33 30 30 31 32 34 34 36 39 40 41 41 42 42 42 43 44 46 49 53 56 60 63 66 69 71 73 75 77
Height
5750 5751 5753 5756 5759 5762 5764 5766 5767 5767 5768 5768 5767 5767 5765 5765 5767 5768 5769 5769 5769 5769 5768 5767 5766 5764 5763 5761 5759 5756 5754 5751 5748 5745 5741 5738 5734 5730 5726 5721 5717 5712 5708 5703
5749 5750 5751 5753 5755 5756 5758 5759 5761 5761 5761 5761 5760 5759 5759 5760 5760 5761 5761 5761 5761 5760 5759 5757 5755 5754 5752 5749 5746 5744 5741 5738 5735 5732 5728 5724 5720 5715 5711 5706 5702 5697 5692 5687
5747 5747 5748 5750 5749 5750 5752 5753 5755 5755 5755 5752 5752 5752 5753 5753 5753 5753 5753 5753 5752 5750 5748 5747 5745 5742 5740 5737 5734 5732 5729 5725 5722 5718 5714 5710 5705 5701 5696 5691 5686 5681 5677 5672
5745 5746 5746 5746 5745 5746 5747 5747 5748 5748 5748 5747 5746 5746 5746 5746 5746 5745 5744 5743 5742 5740 5738 5736 5734 5732 5729 5726 5723 5720 5716 5713 5709 5704 5700 5695 5691 5686 5681 5676 5671 5667 5662 5657
5742 5743 5742 5740 5740 5741 5742 5742 5742 5742 5741 5741 5740 5739 5739 5738 5738 5737 5736 5735 5733 5731 5729 5727 5724 5721 5718 5715 5712 5708 5705 5701 5696 5691 5686 5681 5676 5671 5666 5662 5657 5652 5647 5643
5739 5739 5737 5736 5734 5735 5737 5735 5735 5735 5734 5734 5733 5733 5732 5731 5730 5729 5728 5726 5724 5722 5720 5717 5714 5711 5708 5705 5701 5697 5692 5688 5683 5678 5673 5668 5663 5658 5653 5648 5643 5638 5633 5629
5735 5734 5732 5732 5731 5732 5733 5731 5729 5728 5728 5727 5727 5726 5725 5724 5723 5721 5720 5718 5716 5714 5711 5708 5705 5702 5698 5695 5690 5685 5681 5676 5671 5666 5661 5656 5650 5645 5640 5634 5630 5625 5621 5616
5731 5730 5731 5728 5727 5727 5726 5723 5722 5722 5721 5721 5720 5719 5718 5717 5716 5714 5713 5711 5709 5706 5703 5700 5697 5693 5689 5685 5680 5675 5670 5665 5660 5654 5649 5643 5637 5632 5627 5622 5618 5613 5609 5605
5728 5728 5725 5723 5722 5721 5719 5718 5717 5717 5716 5715 5714 5713 5712 5711 5710 5708 5706 5704 5701 5699 5696 5692 5689 5685 5681 5676 5671 5666 5661 5655 5649 5643 5637 5631 5626 5621 5616 5611 5608 5604 5600 5596
5724 5721 5720 5718 5717 5716 5714 5713 5712 5711 5711 5710 5709 5708 5707 5705 5703 5702 5700 5697 5695 5692 5689 5685 5682 5677 5673 5668 5663 5658 5652 5646 5640 5634 5628 5622 5617 5612 5608 5604 5601 5597 5594 5591
5720 5718 5716 5714 5712 5711 5710 5708 5707 5706 5706 5705 5704 5702 5701 5699 5698 5696 5694 5692 5689 5686 5683 5679 5675 5671 5667 5662 5656 5650 5644 5638 5632 5626 5621 5616 5611 5607 5603 5600 5597 5594 5591 5588
5717 5714 5712 5710 5708 5706 5705 5704 5703 5702 5701 5700 5699 5697 5696 5695 5693 5691 5689 5686 5683 5680 5677 5673 5670 5665 5661 5656 5650 5644 5638 5632 5626 5621 5616 5612 5608 5604 5601 5598 5595 5593 5590 5588
5713 5710 5708 5706 5704 5702 5701 5700 5699 5698 5697 5696 5695 5693 5692 5691 5689 5687 5685 5682 5679 5676 5672 5669 5665 5661 5656 5651 5645 5640 5634 5628 5622 5618 5613 5609 5606 5603 5600 5598 5595 5593 5591 5589
5710 5707 5705 5703 5701 5699 5698 5696 5695 5694 5693 5692 5691 5690 5689 5687 5686 5684 5681 5678 5675 5672 5668 5665 5661 5656 5652 5647 5642 5637 5631 5626 5621 5617 5613 5609 5606 5604 5601 5599 5597 5594 5592 5591
5707 5704 5702 5700 5698 5697 5695 5694 5692 5691 5690 5689 5688 5687 5686 5685 5683 5681 5679 5676 5673 5669 5665 5661 5657 5653 5649 5644 5640 5635 5631 5626 5622 5618 5614 5611 5608 5605 5603 5601 5599 5597 5595 5594
5704 5702 5700 5698 5696 5695 5693 5692 5690 5689 5688 5687 5687 5686 5685 5684 5682 5680 5677 5674 5671 5667 5663 5659 5655 5651 5647 5643 5639 5635 5631 5627 5623 5619 5616 5613 5610 5608 5606 5603 5601 5600 5598 5597
5702 5700 5698 5696 5695 5693 5692 5690 5689 5688 5687 5687 5686 5685 5684 5683 5681 5679 5676 5673 5670 5666 5662 5658 5654 5651 5647 5643 5639 5636 5632 5628 5625 5621 5618 5616 5613 5611 5609 5607 5605 5603 5602 5601
5700 5698 5696 5695 5693 5692 5690 5689 5688 5688 5687 5687 5686 5685 5684 5683 5681 5679 5676 5673 5669 5666 5662 5657 5654 5650 5647 5644 5640 5637 5633 5629 5626 5623 5621 5618 5616 5614 5612 5610 5609 5607 5606 5605
5698 5696 5695 5694 5692 5691 5690 5689 5688 5688 5687 5687 5686 5686 5685 5683 5681 5679 5676 5673 5670 5666 5662 5658 5654 5651 5648 5645 5641 5638 5634 5631 5628 5625 5622 5620 5618 5617 5615 5614 5612 5611 5609 5608
5696 5695 5694 5692 5691 5690 5689 5688 5688 5688 5687 5687 5687 5686 5685 5684 5682 5680 5677 5674 5671 5667 5664 5660 5656 5653 5649 5646 5642 5639 5635 5632 5629 5626 5624 5622 5620 5619 5618 5616 5615 5614 5613 5612
5695 5694 5693 5692 5691 5690 5689 5688 5688 5688 5688 5688 5688 5687 5686 5685 5683 5681 5679 5676 5673 5669 5666 5662 5659 5654 5650 5647 5643 5639 5636 5633 5630 5628 5626 5624 5623 5621 5620 5619 5618 5617 5616 5615
5693 5692 5691 5691 5690 5690 5689 5689 5689 5689 5689 5689 5689 5688 5687 5686 5685 5683 5681 5678 5675 5671 5668 5665 5661 5656 5652 5649 5645 5641 5638 5635 5633 5630 5628 5626 5625 5624 5622 5621 5620 5620 5619 5618
5692 5691 5690 5690 5690 5689 5689 5689 5689 5689 5690 5690 5690 5689 5689 5688 5686 5685 5683 5680 5677 5674 5671 5667 5663 5659 5655 5652 5648 5644 5641 5638 5636 5633 5630 5628 5627 5626 5625 5624 5623 5622 5622 5621
5690 5689 5689 5689 5689 5689 5689 5689 5690 5690 5690 5691 5690 5690 5690 5689 5688 5686 5684 5682 5680 5677 5674 5670 5666 5662 5659 5656 5651 5648 5645 5642 5639 5636 5633 5631 5629 5628 5627 5626 5626 5625 5625 5624
5688 5688 5688 5688 5688 5688 5689 5689 5690 5690 5691 5691 5691 5691 5691 5690 5690 5688 5687 5685 5682 5680 5677 5674 5670 5666 5663 5659 5656 5653 5650 5647 5643 5640 5637 5635 5633 5631 5630 5630 5629 5628 5628 5627
5685 5686 5686 5686 5687 5687 5688 5689 5689 5690 5691 5691 5692 5692 5692 5692 5691 5690 5689 5687 5685 5683 5681 5677 5674 5671 5667 5664 5661 5658 5655 5652 5648 5645 5642 5640 5638 5636 5635 5634 5633 5632 5632 5631
5683 5683 5684 5685 5685 5686 5687 5688 5689 5689 5690 5691 5692 5692 5692 5692 5692 5692 5691 5690 5688 5686 5683 5680 5678 5675 5672 5669 5666 5663 5660 5657 5654 5651 5649 5646 5644 5642 5641 5640 5638 5637 5637 5636